Stündliche Wetter Holodnyy

Heute, 16 Juni, Mittwoch

Zeit Temperatur Niederschläge Wind Luftdruck Luftfeuchtigkeit
00:00 +23°C° 0 mm 1 m/S 755 mmHg 70%
01:00 +22°C° 0 mm 1 m/S 755 mmHg 72%
02:00 +22°C° 0 mm 1 m/S 755 mmHg 74%
03:00 +21°C° 0 mm 1 m/S 756 mmHg 77%
04:00 +22°C° 0 mm 1 m/S 756 mmHg 76%
05:00 +22°C° 0 mm 1 m/S 756 mmHg 75%
06:00 +21°C° 0 mm 0 m/S 756 mmHg 75%
07:00 +22°C° 0 mm 0 m/S 756 mmHg 70%
08:00 +24°C° 0 mm 0 m/S 756 mmHg 65%
09:00 +25°C° 0 mm 0 m/S 756 mmHg 60%
10:00 +28°C° 0 mm 1 m/S 756 mmHg 57%
11:00 +29°C° 0 mm 1 m/S 756 mmHg 54%
12:00 +30°C° 0 mm 2 m/S 756 mmHg 51%
13:00 +31°C° 0 mm 2 m/S 756 mmHg 50%
14:00 +31°C° 0 mm 3 m/S 756 mmHg 49%
15:00 +31°C° 0 mm 3 m/S 756 mmHg 48%
16:00 +31°C° 0 mm 3 m/S 755 mmHg 52%
17:00 +30°C° 0 mm 4 m/S 755 mmHg 55%
18:00 +29°C° 0 mm 4 m/S 755 mmHg 59%
19:00 +28°C° 0.3 mm 4 m/S 755 mmHg 62%
20:00 +26°C° 0.3 mm 4 m/S 755 mmHg 65%
21:00 +25°C° 0.3 mm 5 m/S 755 mmHg 67%
22:00 +25°C° 0.1 mm 5 m/S 755 mmHg 67%
23:00 +24°C° 0.1 mm 6 m/S 755 mmHg 67%

Morgen, 17 Juni, Donnerstag

Zeit Temperatur Niederschläge Wind Luftdruck Luftfeuchtigkeit
00:00 +23°C° 0.1 mm 7 m/S 754 mmHg 67%
01:00 +23°C° 0.1 mm 6 m/S 754 mmHg 67%
02:00 +23°C° 0.1 mm 6 m/S 754 mmHg 66%
03:00 +23°C° 0.1 mm 6 m/S 754 mmHg 66%
04:00 +23°C° 0 mm 6 m/S 755 mmHg 68%
05:00 +23°C° 0 mm 6 m/S 755 mmHg 70%
06:00 +23°C° 0 mm 6 m/S 755 mmHg 72%
07:00 +24°C° 0 mm 7 m/S 755 mmHg 69%
08:00 +26°C° 0 mm 7 m/S 755 mmHg 67%
09:00 +28°C° 0 mm 7 m/S 755 mmHg 64%
10:00 +28°C° 0.1 mm 7 m/S 756 mmHg 64%
11:00 +28°C° 0.1 mm 6 m/S 756 mmHg 64%
12:00 +28°C° 0.1 mm 6 m/S 756 mmHg 65%
13:00 +28°C° 0 mm 6 m/S 756 mmHg 63%
14:00 +29°C° 0 mm 7 m/S 756 mmHg 61%
15:00 +29°C° 0 mm 7 m/S 755 mmHg 59%
16:00 +28°C° 0.4 mm 7 m/S 756 mmHg 63%
17:00 +27°C° 0.4 mm 7 m/S 757 mmHg 68%
18:00 +24°C° 0.4 mm 7 m/S 757 mmHg 73%
19:00 +22°C° 2.4 mm 6 m/S 758 mmHg 79%
20:00 +21°C° 2.4 mm 5 m/S 759 mmHg 86%
21:00 +19°C° 2.4 mm 5 m/S 760 mmHg 92%
22:00 +19°C° 1.1 mm 4 m/S 760 mmHg 92%
23:00 +19°C° 1.1 mm 4 m/S 760 mmHg 92%

übermorgen, 18 Juni, Freitag

Zeit Temperatur Niederschläge Wind Luftdruck Luftfeuchtigkeit
00:00 +19°C° 1.1 mm 3 m/S 760 mmHg 93%
01:00 +19°C° 0.9 mm 3 m/S 760 mmHg 92%
02:00 +19°C° 0.9 mm 3 m/S 760 mmHg 92%
03:00 +19°C° 0.9 mm 3 m/S 760 mmHg 92%
04:00 +19°C° 0.4 mm 3 m/S 761 mmHg 90%
05:00 +19°C° 0.4 mm 3 m/S 761 mmHg 89%
06:00 +20°C° 0.4 mm 3 m/S 762 mmHg 87%
07:00 +20°C° 0 mm 4 m/S 762 mmHg 83%
08:00 +21°C° 0 mm 4 m/S 762 mmHg 80%
09:00 +21°C° 0 mm 5 m/S 762 mmHg 76%
10:00 +22°C° 0 mm 5 m/S 762 mmHg 73%
11:00 +22°C° 0 mm 5 m/S 762 mmHg 71%
12:00 +23°C° 0 mm 5 m/S 763 mmHg 68%
13:00 +24°C° 0 mm 6 m/S 763 mmHg 63%
14:00 +26°C° 0 mm 6 m/S 763 mmHg 58%
15:00 +27°C° 0 mm 7 m/S 762 mmHg 52%
16:00 +27°C° 0 mm 6 m/S 762 mmHg 54%
17:00 +26°C° 0 mm 6 m/S 762 mmHg 56%
18:00 +26°C° 0 mm 5 m/S 763 mmHg 58%
19:00 +25°C° 0 mm 5 m/S 763 mmHg 60%
20:00 +23°C° 0 mm 6 m/S 763 mmHg 61%
21:00 +22°C° 0 mm 6 m/S 763 mmHg 62%
22:00 +21°C° 0 mm 6 m/S 763 mmHg 61%
23:00 +21°C° 0 mm 7 m/S 764 mmHg 60%

19 Juni, Samstag

Zeit Temperatur Niederschläge Wind Luftdruck Luftfeuchtigkeit
00:00 +21°C° 0 mm 7 m/S 764 mmHg 59%
01:00 +20°C° 0 mm 7 m/S 764 mmHg 57%
02:00 +20°C° 0 mm 8 m/S 764 mmHg 56%
03:00 +18°C° 0 mm 8 m/S 764 mmHg 55%
04:00 +18°C° 0 mm 7 m/S 764 mmHg 58%
05:00 +18°C° 0 mm 7 m/S 765 mmHg 61%
06:00 +17°C° 0 mm 7 m/S 765 mmHg 64%
07:00 +20°C° 0 mm 7 m/S 765 mmHg 62%
08:00 +21°C° 0 mm 8 m/S 765 mmHg 59%
09:00 +22°C° 0 mm 8 m/S 765 mmHg 56%
10:00 +24°C° 0 mm 8 m/S 765 mmHg 53%
11:00 +26°C° 0 mm 8 m/S 765 mmHg 49%
12:00 +27°C° 0 mm 8 m/S 764 mmHg 45%
13:00 +28°C° 0 mm 8 m/S 764 mmHg 45%
14:00 +28°C° 0 mm 7 m/S 764 mmHg 44%
15:00 +29°C° 0 mm 7 m/S 763 mmHg 43%
16:00 +28°C° 0 mm 7 m/S 763 mmHg 45%
17:00 +28°C° 0 mm 6 m/S 763 mmHg 48%
18:00 +27°C° 0 mm 6 m/S 763 mmHg 50%
19:00 +26°C° 0 mm 6 m/S 763 mmHg 49%
20:00 +24°C° 0 mm 6 m/S 763 mmHg 49%
21:00 +22°C° 0 mm 6 m/S 763 mmHg 48%
22:00 +22°C° 0 mm 6 m/S 763 mmHg 47%
23:00 +21°C° 0 mm 7 m/S 763 mmHg 46%

20 Juni, Sonntag

Zeit Temperatur Niederschläge Wind Luftdruck Luftfeuchtigkeit
00:00 +21°C° 0 mm 7 m/S 763 mmHg 44%
01:00 +20°C° 0 mm 7 m/S 763 mmHg 45%
02:00 +20°C° 0 mm 7 m/S 763 mmHg 45%
03:00 +20°C° 0 mm 7 m/S 763 mmHg 45%
04:00 +18°C° 0 mm 7 m/S 763 mmHg 49%
05:00 +18°C° 0 mm 7 m/S 763 mmHg 53%
06:00 +18°C° 0 mm 7 m/S 763 mmHg 57%
07:00 +21°C° 0 mm 7 m/S 763 mmHg 54%
08:00 +23°C° 0 mm 7 m/S 763 mmHg 52%
09:00 +26°C° 0 mm 8 m/S 763 mmHg 50%
10:00 +27°C° 0 mm 8 m/S 762 mmHg 47%
11:00 +29°C° 0 mm 8 m/S 762 mmHg 43%
12:00 +32°C° 0 mm 8 m/S 762 mmHg 39%
13:00 +32°C° 0 mm 8 m/S 762 mmHg 39%
14:00 +33°C° 0 mm 8 m/S 761 mmHg 38%
15:00 +34°C° 0 mm 7 m/S 761 mmHg 37%
16:00 +33°C° 0 mm 7 m/S 761 mmHg 39%
17:00 +32°C° 0 mm 7 m/S 761 mmHg 42%
18:00 +30°C° 0 mm 6 m/S 761 mmHg 45%
19:00 +28°C° 0 mm 6 m/S 761 mmHg 46%
20:00 +27°C° 0 mm 6 m/S 761 mmHg 46%
21:00 +25°C° 0 mm 5 m/S 761 mmHg 47%
22:00 +25°C° 0 mm 5 m/S 761 mmHg 48%
23:00 +23°C° 0 mm 5 m/S 761 mmHg 48%

21 Juni, Montag

Zeit Temperatur Niederschläge Wind Luftdruck Luftfeuchtigkeit
00:00 +22°C° 0 mm 5 m/S 761 mmHg 49%
01:00 +21°C° 0 mm 5 m/S 761 mmHg 49%
02:00 +21°C° 0 mm 4 m/S 761 mmHg 50%
03:00 +20°C° 0 mm 4 m/S 761 mmHg 50%
04:00 +20°C° 0 mm 5 m/S 761 mmHg 53%
05:00 +21°C° 0 mm 5 m/S 761 mmHg 55%
06:00 +21°C° 0 mm 5 m/S 761 mmHg 57%
07:00 +23°C° 0 mm 6 m/S 761 mmHg 53%
08:00 +26°C° 0 mm 6 m/S 761 mmHg 49%
09:00 +28°C° 0 mm 7 m/S 761 mmHg 45%
10:00 +30°C° 0 mm 7 m/S 761 mmHg 41%
11:00 +32°C° 0 mm 8 m/S 761 mmHg 37%
12:00 +34°C° 0 mm 8 m/S 760 mmHg 33%
13:00 +35°C° 0 mm 7 m/S 760 mmHg 33%
14:00 +35°C° 0 mm 7 m/S 760 mmHg 32%
15:00 +36°C° 0 mm 6 m/S 759 mmHg 32%
16:00 +35°C° 0 mm 6 m/S 759 mmHg 36%
17:00 +34°C° 0 mm 5 m/S 759 mmHg 39%
18:00 +33°C° 0 mm 4 m/S 759 mmHg 43%
19:00 +30°C° 0 mm 4 m/S 759 mmHg 46%
20:00 +28°C° 0 mm 4 m/S 759 mmHg 48%
21:00 +26°C° 0 mm 4 m/S 759 mmHg 50%
22:00 +25°C° 0 mm 4 m/S 759 mmHg 50%
23:00 +25°C° 0 mm 4 m/S 759 mmHg 51%
Mehr zeigen

Wir brauchen deine Erlaubnis

Meteoprog und unser Service Anbieter werden persönliche Daten aufbewahren, so wie Cookies, Geräte Bezeichnung oder ähnliche Technologien von deinem Gerät und Prozess, so wie Persönliche Daten Inhalte und Werbungen, genauso wie social Media und den Verkehr zu analysieren.

  • Aufbewahrung und/oder Zugang zu deiner Geräte Informationen.

    Cookies, Geräte Bezeichnung oder andere Informationen, können aufbewahrt oder Zugang zu deinem Gerät erhalten, für den Grund, der oben angegeben wird.

  • Personalisierte Werbung und Inhalte, Messungen, Einblick in das Publikum und Produkt Entwicklung.

    Werbungen und Inhalte können personalisiert werden, basierend auf ein Profil. Mehr Daten können besser personalisierte Werbungen und Inhalte hinzufügen. Werbung und Inhalte können gezeigt und gemessen werden. Einblicke über das Publikum, welche die Werbung gesehen haben und den Inhalt, können abgeleitet werden. So wie Daten können genutzt werden, um es zu verbessern oder die Benutzer Erfahrung zu verbessern das System und die Software.

Wenn du “Ich stimme zu” klickst, erlaubst du uns, die Cookies zu benutzen die Geräte Bezeichnung, den Web oder ähnliche Technologien zu benutzen. Deine Settings, können in deinem Gerät bei deinem Browser geändert werden.

Für den bestimmten Zweck, berechtigten Interessen beruhen darauf, mehr als auf den Inhalt. Du kannst mehr darüber in unseren Privaten und Cookie Politik lesen.